| time (UTC) | temp C | wind direction | speed KPH | gust KPH | rain 1hr cm | rain 24hr cm | rain mn cm | humidity % | barometer mb |
| 20260506103100 | 11 | 31 | 3.2 | 8.0 | 0.00 | 0.18 | 0.00 | 59 | 1013.9 |
| 20260506101600 | 11 | 50 | 3.2 | 9.7 | 0.00 | 0.18 | 0.00 | 60 | 1014.0 |
| 20260506100113 | 10 | 252 | 8.0 | 17.7 | 0.00 | 0.18 | 0.00 | 63 | 1014.1 |
| 20260506094604 | 10 | 53 | 6.4 | 14.5 | 0.00 | 0.18 | 0.00 | 63 | 1014.0 |
| 20260506093101 | 10 | 86 | 11.3 | 17.7 | 0.00 | 0.18 | 0.00 | 65 | 1014.1 |
| 20260506091607 | 9 | 2 | 6.4 | 19.3 | 0.00 | 0.18 | 0.00 | 66 | 1013.9 |
| 20260506090105 | 8 | 8 | 9.7 | 19.3 | 0.00 | 0.18 | 0.00 | 67 | 1014.0 |
| 20260506084635 | 8 | 63 | 8.0 | 19.3 | 0.00 | 0.18 | 0.00 | 67 | 1013.9 |
| 20260506083111 | 8 | 44 | 9.7 | 17.7 | 0.00 | 0.18 | 0.00 | 67 | 1013.8 |
| 20260506081602 | 8 | 49 | 8.0 | 17.7 | 0.00 | 0.18 | 0.00 | 71 | 1014.0 |
| 20260506080105 | 7 | 46 | 6.4 | 17.7 | 0.00 | 0.18 | 0.00 | 72 | 1013.9 |
| 20260506073100 | 7 | 39 | 9.7 | 19.3 | 0.00 | 0.18 | 0.00 | 76 | 1013.7 |
| 20260506071600 | 6 | 63 | 9.7 | 17.7 | 0.00 | 0.18 | 0.00 | 81 | 1013.7 |
| 20260506061559 | 3 | 116 | 1.6 | 4.8 | 0.00 | 0.18 | 0.00 | 86 | 1013.6 |
| 20260506044559 | 2 | 65 | 3.2 | 6.4 | 0.00 | 0.18 | 0.00 | 91 | 1013.0 |
| 20260506043058 | 1 | 104 | 1.6 | 3.2 | 0.00 | 0.18 | 0.00 | 91 | 1012.9 |
| 20260506041608 | 1 | 0 | 0.0 | 3.2 | 0.00 | 0.18 | 0.00 | 92 | 1013.0 |
| 20260506040100 | 1 | 62 | 1.6 | 6.4 | 0.00 | 0.18 | 0.00 | 91 | 1013.1 |
| 20260506034559 | 2 | 95 | 1.6 | 8.0 | 0.00 | 0.18 | 0.00 | 91 | 1013.2 |
| 20260506033101 | 2 | 0 | 0.0 | 3.2 | 0.00 | 0.18 | 0.00 | 91 | 1013.1 |
| 20260506031558 | 2 | 0 | 1.6 | 6.4 | 0.00 | 0.18 | 0.00 | 91 | 1013.1 |
| 20260506030059 | 2 | 52 | 0.0 | 4.8 | 0.00 | 0.18 | 0.00 | 91 | 1013.3 |
| 20260506024602 | 2 | 69 | 0.0 | 3.2 | 0.00 | 0.18 | 0.00 | 90 | 1013.3 |
| 20260506023109 | 2 | 48 | 0.0 | 3.2 | 0.00 | 0.18 | 0.00 | 90 | 1013.4 |
| 20260506021617 | 2 | 127 | 1.6 | 3.2 | 0.00 | 0.18 | 0.00 | 90 | 1013.4 |
| 20260506020055 | 2 | 0 | 0.0 | 1.6 | 0.00 | 0.18 | 0.00 | 90 | 1013.5 |
| 20260506014557 | 2 | 0 | 0.0 | 1.6 | 0.00 | 0.18 | 0.00 | 90 | 1013.5 |
| 20260506013108 | 3 | 120 | 0.0 | 1.6 | 0.00 | 0.18 | 0.00 | 89 | 1013.6 |
| 20260506011616 | 3 | 0 | 0.0 | 0.0 | 0.00 | 0.18 | 0.00 | 88 | 1013.6 |
| 20260506010059 | 3 | 0 | 0.0 | 3.2 | 0.00 | 0.18 | 0.00 | 88 | 1013.7 |
| 20260506004558 | 3 | 0 | 0.0 | 4.8 | 0.00 | 0.18 | 0.00 | 88 | 1013.8 |
| 20260506003057 | 3 | 47 | 0.0 | 3.2 | 0.00 | 0.18 | 0.00 | 87 | 1013.7 |
| 20260506001559 | 3 | 113 | 0.0 | 1.6 | 0.00 | 0.18 | 0.00 | 86 | 1013.9 |
| 20260506000100 | 4 | 48 | 1.6 | 4.8 | 0.00 | 0.18 | 0.00 | 85 | 1013.7 |
| 20260505234559 | 4 | 106 | 1.6 | 6.4 | 0.00 | 0.18 | 0.00 | 85 | 1013.8 |
| 20260505233105 | 4 | 131 | 3.2 | 8.0 | 0.00 | 0.18 | 0.00 | 85 | 1013.9 |
| 20260505231611 | 4 | 56 | 4.8 | 12.9 | 0.00 | 0.18 | 0.00 | 85 | 1014.1 |
| 20260505230058 | 5 | 58 | 6.4 | 11.3 | 0.00 | 0.18 | 0.00 | 83 | 1014.1 |
| 20260505224603 | 5 | 101 | 1.6 | 8.0 | 0.00 | 0.18 | 0.00 | 81 | 1014.2 |
| 20260505223101 | 6 | 52 | 4.8 | 8.0 | 0.00 | 0.18 | 0.00 | 80 | 1014.1 |
| 20260505221604 | 5 | 55 | 3.2 | 8.0 | 0.00 | 0.18 | 0.00 | 81 | 1014.2 |
| 20260505214601 | 6 | 42 | 6.4 | 12.9 | 0.00 | 0.18 | 0.18 | 78 | 1014.3 |
| 20260505213059 | 6 | 54 | 8.0 | 14.5 | 0.00 | 0.18 | 0.18 | 77 | 1014.3 |
| 20260505211559 | 7 | 43 | 3.2 | 11.3 | 0.00 | 0.18 | 0.18 | 76 | 1014.4 |
| 20260505210059 | 7 | 50 | 9.7 | 19.3 | 0.00 | 0.18 | 0.18 | 75 | 1014.2 |
| 20260505204600 | 7 | 319 | 3.2 | 9.7 | 0.00 | 0.18 | 0.18 | 74 | 1014.1 |
| 20260505203121 | 8 | 352 | 8.0 | 14.5 | 0.00 | 0.18 | 0.18 | 72 | 1013.9 |
| 20260505201605 | 8 | 333 | 12.9 | 20.9 | 0.00 | 0.18 | 0.18 | 69 | 1013.6 |
| 20260505194600 | 10 | 336 | 4.8 | 12.9 | 0.00 | 0.18 | 0.18 | 65 | 1013.3 |
| 20260505193109 | 10 | 293 | 8.0 | 16.1 | 0.00 | 0.18 | 0.18 | 63 | 1013.0 |
| 20260505191612 | 10 | 354 | 4.8 | 19.3 | 0.00 | 0.18 | 0.18 | 63 | 1012.9 |
| 20260505190100 | 10 | 295 | 8.0 | 14.5 | 0.00 | 0.18 | 0.18 | 63 | 1012.7 |
| 20260505184602 | 11 | 349 | 8.0 | 14.5 | 0.00 | 0.18 | 0.18 | 64 | 1012.6 |
| 20260505181559 | 11 | 68 | 1.6 | 4.8 | 0.00 | 0.18 | 0.18 | 70 | 1012.4 |
| 20260505180103 | 10 | 115 | 3.2 | 8.0 | 0.00 | 0.18 | 0.18 | 72 | 1012.3 |
| 20260505174606 | 10 | 56 | 3.2 | 9.7 | 0.00 | 0.18 | 0.18 | 74 | 1012.3 |
| 20260505173101 | 10 | 94 | 3.2 | 8.0 | 0.00 | 0.18 | 0.18 | 72 | 1012.3 |
| 20260505171601 | 10 | 75 | 4.8 | 8.0 | 0.00 | 0.15 | 0.15 | 70 | 1012.2 |
| 20260505170111 | 10 | 41 | 8.0 | 17.7 | 0.00 | 0.15 | 0.15 | 65 | 1012.1 |
| 20260505164559 | 10 | 53 | 11.3 | 22.5 | 0.00 | 0.15 | 0.15 | 64 | 1012.3 |
| 20260505163103 | 10 | 349 | 12.9 | 22.5 | 0.00 | 0.15 | 0.15 | 65 | 1012.3 |
| 20260505161616 | 11 | 336 | 11.3 | 25.7 | 0.00 | 0.15 | 0.15 | 61 | 1012.3 |
| 20260505153108 | 12 | 1 | 4.8 | 11.3 | 0.00 | 0.15 | 0.15 | 60 | 1012.3 |
| 20260505150105 | 12 | 358 | 11.3 | 22.5 | 0.00 | 0.15 | 0.15 | 63 | 1012.5 |
| 20260505140114 | 10 | 49 | 11.3 | 19.3 | 0.13 | 0.15 | 0.15 | 73 | 1012.9 |
| 20260505130111 | 10 | 179 | 17.7 | 27.4 | 0.00 | 0.00 | 0.00 | 62 | 1012.6 |
| 20260505124611 | 10 | 57 | 8.0 | 16.1 | 0.00 | 0.00 | 0.00 | 72 | 1012.8 |
| 20260505123108 | 10 | 290 | 9.7 | 20.9 | 0.00 | 0.00 | 0.00 | 67 | 1012.9 |
| 20260505121631 | 11 | 38 | 9.7 | 25.7 | 0.00 | 0.00 | 0.00 | 65 | 1012.8 |
| 20260505120112 | 11 | 37 | 8.0 | 30.6 | 0.00 | 0.00 | 0.00 | 66 | 1012.9 |
| 20260505114600 | 12 | 197 | 3.2 | 19.3 | 0.00 | 0.00 | 0.00 | 56 | 1012.9 |
| 20260505113112 | 12 | 224 | 0.0 | 8.0 | 0.00 | 0.00 | 0.00 | 64 | 1013.1 |
| 20260505111608 | 11 | 30 | 3.2 | 8.0 | 0.00 | 0.00 | 0.00 | 67 | 1013.3 |
| 20260505110107 | 10 | 0 | 1.6 | 3.2 | 0.00 | 0.00 | 0.00 | 70 | 1013.4 |